COYOTE (LAKE MENDOCINO) (COY)

Elevation: 720' · RUSSIAN R basin · Operator: US Army Corps of Engineers

Provisional data, subject to change.
Query executed Thursday at 14:35:20   clock

Select a sensor type for a plot of data.
Note: Reservoir Flows are daily averages.

Earlier

Date RES ELE    STORAGE    RES CHG    TOC STO    ABV TOC    OUTFLOW    INFLOW    PPT INC    TEMP MN    TEMP MX    EVP PAN   
 FEET   AF   AF   AF   AF   CFS   CFS   INCHES   DEG F   DEG F   INCHES  
08/19/2014 714.91 34669 -178 86370 -51701 150 72 0.00 13 34 0.27
08/20/2014 714.77 34492 -177 86370 -51878 144 65 0.00 14 29 0.23
08/21/2014 714.62 34302 -190 86370 -52068 141 56 0.00 14 34 0.26
08/22/2014 714.49 34138 -164 86370 -52232 138 67 0.00 14 31 0.27
08/23/2014 714.34 33950 -188 86370 -52420 138 54 0.00 13 34 0.27
08/24/2014 714.20 33774 -176 86370 -52596 138 60 0.00 13 32 0.25
08/25/2014 714.05 33586 -188 86370 -52784 135 50 0.00 13 29 0.23
08/26/2014 713.91 33412 -174 86370 -52958 122 45 0.00 13 34 0.26
08/27/2014 713.78 33250 -162 86370 -53120 122 52 0.00 13 38 0.27
08/28/2014 713.64 33075 -- 86370 -- 122 46 0.00 15 38 0.27
08/29/2014 713.50 32900 -175 86370 -53470 124 45 0.00 15 34 0.21
08/30/2014 713.32 32676 -224 86370 -53694 125 23 0.00 14 33 0.27
08/31/2014 713.18 32502 -174 86370 -53868 123 48 0.00 14 35 0.27
09/01/2014 713.03 32315 -187 86370 -54055 125 43 0.00 13 39 0.27
09/02/2014 712.90 32153 -162 86370 -54217 125 56 0.00 15 38 0.27
09/03/2014 712.78 32005 -148 86370 -54365 121 59 0.00 12 38 0.27
09/04/2014 712.66 31857 -148 86370 -54513 116 53 0.00 13 37 0.27
09/05/2014 712.54 31710 -147 86370 -54660 116 53 0.00 12 34 0.25
09/06/2014 712.41 31552 -158 86370 -54818 116 48 0.00 12 33 0.27
09/07/2014 712.31 31431 -121 86370 -54939 116 66 0.00 8 35 0.25
09/08/2014 712.20 31298 -133 86370 -55072 116 59 0.00 9 32 0.23
09/09/2014 712.09 31166 -132 86370 -55204 116 60 0.00 8 35 0.25
09/10/2014 712.00 31059 -107 86370 -55311 110 67 0.00 11 39 0.25
09/11/2014 711.92 30964 -95 86370 -55406 105 67 0.00 13 40 0.25
09/12/2014 711.84 30869 -95 86370 -55501 102 65 0.00 12 39 0.25
09/13/2014 711.76 30774 -95 86370 -55596 101 64 0.00 15 39 0.24
09/14/2014 711.65 30644 -130 86370 -55726 101 46 0.00 14 38 0.24
09/15/2014 711.60 30586 -58 86370 -55784 107 88 0.00 12 33 0.24
09/16/2014 711.50 30468 -118 86370 -55902 115 65 0.00 10 33 0.22
09/17/2014 711.43 30387 -81 86370 -55983 98 67 0.00 12 32 0.23
09/18/2014 -- -- -- -- -- -- -- -- -- -- --

Later | Latest

Warning! This data is preliminary and subject to revision.

Download Data Now Download Data Now | Show COY Map | Plot COY Data | 1 Month COY Data | Real-Time COY Data | COY Info